Wind_Speed
13 12 13 13 15 16 14 13 12 12 13 13 12 11 10 12 11 11 11 8 7 7 9 9 11 13 13 14 14 15 17 17 19 20 21 23 26 27 25 25 25 24 23
13 12 12 13 12 14 13 14 12 12 13 15 14 13 12 10 11 12 10 11 10 10 10 12 13 15 15 13 16 18 20 21 22 22 22 22 21 22 23 25 23 21 19
14 13 13 12 13 13 13 14 14 13 15 15 16 15 13 11 10 11 11 12 13 15 15 16 15 16 16 14 17 20 22 24 25 24 21 18 17 17 17 17 17 16 17
11 11 11 12 12 13 14 14 14 13 13 16 17 16 14 13 12 13 13 11 13 17 17 16 16 17 17 16 18 20 22 23 23 21 18 15 13 13 13 14 14 14 14
10 10 9 11 12 14 14 13 14 13 12 15 17 17 15 14 11 16 17 14 15 18 19 18 18 18 17 17 18 18 20 20 18 17 16 16 15 13 12 11 12 12 13
9 11 10 11 13 14 15 14 13 12 13 15 17 17 16 16 14 16 18 17 17 20 21 19 20 20 19 18 18 18 19 18 16 15 14 13 13 13 12 12 13 15 16
9 11 10 11 13 14 15 15 14 13 13 16 19 19 19 19 19 19 19 19 19 20 21 20 20 20 20 21 21 21 22 22 17 15 15 16 16 17 17 17 17 18 19
9 12 12 11 13 14 15 16 16 14 14 13 17 21 23 23 24 21 21 20 19 20 21 19 19 21 22 22 24 26 26 27 26 23 20 20 21 22 22 22 23 23 22
11 13 13 12 13 15 15 17 18 17 16 16 16 17 21 23 24 24 22 21 21 22 22 22 23 23 24 24 26 27 29 31 33 33 32 29 28 28 28 28 28 28 27
14 14 14 13 13 15 16 17 19 21 20 19 20 20 20 21 22 24 22 23 24 25 27 28 28 29 30 29 29 30 32 33 35 38 39 38 37 37 36 35 35 35 34
15 15 13 14 14 14 16 18 19 21 23 23 23 23 24 24 24 24 25 26 28 29 31 33 33 33 32 33 34 37 39 39 39 42 43 43 43 42 42 41 41 40 40
15 16 14 15 15 14 16 18 21 23 23 26 27 26 26 27 27 28 28 29 31 33 34 35 36 36 38 38 40 45 45 45 45 45 44 44 44 45 45 46 46 46 45
17 18 17 16 17 16 17 17 19 22 23 25 27 27 27 28 28 29 30 32 34 36 37 38 40 42 44 46 47 50 49 48 46 44 43 43 44 44 43 45 47 49 49
18 19 19 19 20 20 20 19 20 19 20 22 24 25 26 27 28 31 32 34 36 39 41 44 45 46 45 44 44 44 44 43 43 42 43 44 44 44 45 45 46 48 49
20 21 20 20 22 23 22 21 21 21 19 20 22 23 25 27 30 33 35 39 43 45 44 43 42 41 40 41 41 42 42 43 43 44 44 46 47 47 48 49 50 50 50
19 21 22 21 22 23 23 22 22 21 21 22 24 26 29 31 35 37 39 41 43 42 40 40 40 39 39 40 41 42 42 42 42 42 43 43 46 48 49 50 51 52 52
19 19 21 23 25 24 24 21 21 21 23 24 27 29 31 33 35 37 37 36 35 34 33 34 35 35 35 36 37 40 41 41 42 43 44 45 47 49 51 51 52 52 54
20 20 19 20 23 26 26 23 24 25 27 28 31 32 33 34 34 34 32 32 32 32 32 33 35 36 37 38 40 43 44 47 48 49 50 51 52 53 54 55 57 57 57
23 25 24 22 27 27 26 24 27 29 31 34 35 36 35 34 32 31 30 31 32 34 36 37 39 41 42 44 46 47 49 50 51 53 54 56 57 57 58 58 59 60 61
28 28 27 24 27 28 25 26 30 34 37 39 38 36 34 33 33 32 32 34 36 38 40 42 43 46 47 49 50 51 52 51 51 51 53 54 55 55 57 59 59 60 61
24 25 26 25 24 24 25 29 33 38 41 40 38 35 34 34 35 36 37 39 41 42 44 46 48 49 50 53 54 55 54 54 55 56 55 56 56 57 59 61 62 63 63
22 24 25 24 24 25 29 32 36 39 39 37 35 35 36 37 38 40 41 43 44 46 47 47 48 50 53 57 60 62 61 59 59 59 60 62 63 64 65 66 68 69 69
19 23 25 26 25 28 31 34 36 34 32 34 36 38 39 40 41 43 43 43 43 44 46 50 54 57 59 61 64 68 69 69 69 68 68 68 69 69 70 70 71 71 73
18 22 24 28 31 32 34 33 33 33 34 37 39 41 42 43 43 43 42 44 47 50 53 57 61 64 67 69 69 70 73 77 80 79 77 77 78 78 78 78 78 77 75
22 24 27 30 32 34 34 34 34 36 39 41 41 43 42 41 41 42 46 50 53 58 63 67 69 71 73 75 77 79 79 79 82 84 83 83 85 87 88 90 91 89 85
27 28 30 31 32 34 34 34 37 39 40 42 43 42 41 41 45 48 52 55 59 63 67 70 72 74 75 77 79 81 83 86 89 92 94 92 93 93 95 96 96 94 90
Wind_Direction
254 260 266 270 276 279 281 273 263 249 245 251 249 246 236 235 240 239 252 262 286 272 281 295 300 301 304 309 313 316 313 312 309 305 298 288 282 281 283 283 285 291 300
254 263 271 274 279 280 278 274 266 256 253 254 246 246 243 242 247 246 253 265 274 282 288 296 297 297 298 302 310 309 310 308 301 299 295 294 294 287 281 280 285 292 299
255 265 272 276 274 276 273 268 264 263 265 249 245 246 250 249 254 256 250 256 273 277 280 284 290 290 293 294 304 308 309 307 304 302 300 301 302 296 291 289 292 299 302
270 274 279 276 275 275 270 270 268 270 271 244 246 246 251 255 257 263 253 253 265 274 279 285 287 286 292 295 306 312 317 319 312 306 306 303 301 302 303 304 303 306 314
273 281 282 274 276 275 269 273 276 270 266 247 245 247 255 265 268 273 264 261 263 272 283 289 291 284 288 293 306 313 321 327 324 313 311 310 312 313 313 316 317 320 320
276 283 277 272 275 273 269 271 274 272 259 248 247 253 259 267 270 272 269 268 270 275 283 287 286 277 286 287 299 303 310 318 322 323 322 320 316 310 310 312 312 307 305
283 283 280 272 273 274 265 268 272 271 270 255 255 259 262 267 272 275 279 276 273 279 285 288 284 278 284 288 289 293 298 302 300 301 302 305 304 304 304 301 295 294 298
278 292 290 282 275 276 270 265 271 270 271 274 267 266 264 267 270 272 276 277 280 280 284 286 287 288 290 292 291 293 294 294 294 295 294 295 297 295 292 290 290 291 292
275 292 295 290 282 275 275 270 268 272 271 273 275 274 271 268 269 273 276 280 280 283 286 285 285 285 288 290 290 290 293 295 296 294 291 288 287 286 287 287 286 286 288
274 289 296 293 285 280 275 273 271 269 271 273 275 276 278 274 274 273 276 279 281 282 285 287 287 285 284 284 285 286 289 293 295 294 292 290 287 286 286 286 286 287 287
270 282 290 297 288 287 281 275 274 270 267 267 270 273 276 279 280 282 280 281 282 284 285 285 287 286 283 284 286 287 288 290 292 293 291 289 289 287 285 285 285 286 286
266 273 282 303 300 293 291 284 279 277 272 269 269 270 274 278 280 281 283 284 285 284 284 285 286 286 288 287 286 287 290 291 291 291 289 287 287 287 285 285 286 287 288
255 263 274 294 306 318 309 304 292 284 280 274 274 275 276 277 281 283 284 286 286 286 286 287 288 288 287 286 286 286 288 288 288 287 287 287 287 287 287 286 285 285 285
251 261 270 285 298 306 307 305 300 289 282 280 279 279 280 282 284 283 286 287 288 288 289 288 287 286 285 284 284 284 285 286 288 286 286 285 286 286 286 286 285 284 284
246 261 272 283 294 298 300 304 298 294 290 288 288 288 289 290 290 292 292 292 291 290 289 287 286 285 285 284 283 284 285 286 286 286 285 285 285 284 284 284 284 283 283
251 257 271 283 292 295 294 298 293 293 293 292 292 293 294 295 294 293 294 292 290 288 288 289 288 289 288 288 288 288 289 289 289 289 289 289 288 287 286 284 284 284 284
263 267 270 280 291 297 288 288 286 284 283 286 288 289 292 295 296 297 294 294 292 293 295 292 291 290 289 289 290 290 290 291 291 290 289 289 287 287 287 286 285 284 284
275 281 280 283 287 285 279 278 280 285 289 291 294 295 294 294 294 293 295 294 293 295 294 292 292 293 293 292 290 289 289 289 290 290 289 288 287 286 285 285 285 284 284
284 284 282 279 287 276 271 277 283 287 292 296 297 295 295 294 294 292 291 291 292 291 291 291 291 292 291 290 289 289 290 291 291 291 291 291 291 291 290 289 288 287 286
286 280 277 271 271 265 269 279 287 293 297 299 298 296 294 293 292 290 290 291 291 290 290 290 291 292 292 290 290 292 292 293 293 292 291 291 291 291 291 291 289 287 286
280 273 273 271 267 264 275 283 290 294 296 296 295 293 292 291 292 292 291 291 293 293 294 295 297 299 299 299 298 296 296 294 294 293 292 291 292 292 292 291 290 289 287
271 272 271 270 268 273 279 286 291 292 292 290 290 291 291 292 293 294 296 297 299 301 302 302 301 301 301 301 300 298 296 293 292 292 292 292 291 290 290 289 288 287 286
280 278 272 270 275 282 287 291 291 290 288 289 290 292 294 295 298 300 301 301 301 300 300 301 301 302 302 300 299 299 296 294 292 291 289 288 288 287 287 287 285 283 282
267 269 277 283 287 290 293 292 291 291 291 291 293 295 298 300 300 300 300 302 303 303 303 303 303 302 302 300 297 296 297 296 295 292 291 291 290 289 288 288 287 285 281
268 271 279 284 289 290 289 288 289 291 294 296 297 300 300 299 298 299 302 303 304 305 305 305 304 303 302 302 301 300 298 297 296 295 291 289 289 289 289 291 291 289 285
274 278 281 283 285 287 286 288 290 293 294 296 299 299 299 302 303 304 306 308 311 312 310 307 305 303 302 301 299 298 298 297 296 296 295 293 291 291 291 290 289 287 284
Height
5873 5873 5873 5873 5873 5872 5872 5873 5873 5873 5873 5873 5873 5874 5873 5873 5873 5872 5873 5873 5873 5873 5872 5871 5871 5870 5868 5866 5864 5862 5861 5859 5858 5856 5854 5852 5851 5850 5849 5849 5847 5846 5845
5871 5871 5871 5871 5870 5871 5870 5869 5870 5870 5870 5871 5871 5871 5871 5871 5871 5871 5870 5871 5871 5871 5870 5869 5868 5867 5865 5863 5861 5860 5858 5856 5855 5853 5850 5848 5846 5845 5844 5844 5843 5842 5840
5869 5869 5869 5869 5868 5868 5868 5867 5867 5868 5867 5868 5869 5869 5869 5868 5868 5869 5869 5868 5868 5869 5868 5867 5865 5864 5863 5861 5859 5857 5855 5853 5851 5849 5846 5844 5843 5842 5841 5840 5839 5838 5837
5867 5867 5867 5867 5866 5866 5866 5865 5865 5864 5865 5865 5866 5867 5867 5867 5867 5867 5866 5865 5865 5865 5864 5863 5862 5861 5860 5858 5857 5854 5853 5850 5848 5846 5844 5842 5841 5839 5838 5838 5836 5835 5833
5865 5866 5865 5865 5864 5864 5864 5863 5863 5862 5862 5862 5863 5864 5864 5864 5863 5864 5863 5861 5861 5861 5860 5859 5859 5858 5857 5855 5853 5852 5850 5848 5846 5843 5841 5840 5838 5837 5835 5833 5832 5831 5830
5863 5864 5863 5863 5862 5862 5861 5861 5860 5860 5859 5859 5860 5861 5861 5861 5860 5860 5859 5858 5857 5857 5857 5856 5855 5854 5853 5852 5851 5849 5847 5845 5843 5841 5839 5837 5835 5834 5832 5830 5829 5828 5826
5862 5862 5861 5860 5860 5859 5859 5858 5858 5858 5857 5856 5857 5857 5858 5858 5857 5856 5856 5854 5853 5853 5853 5852 5851 5851 5850 5849 5848 5846 5845 5843 5840 5838 5836 5835 5833 5831 5829 5827 5825 5823 5822
5860 5860 5859 5857 5857 5857 5856 5856 5855 5855 5855 5854 5853 5853 5854 5854 5854 5853 5852 5851 5850 5850 5850 5849 5848 5847 5846 5845 5844 5843 5841 5838 5837 5835 5832 5831 5829 5827 5825 5823 5821 5819 5817
5858 5858 5857 5855 5854 5854 5854 5853 5853 5852 5852 5852 5851 5850 5850 5850 5850 5849 5848 5848 5848 5848 5847 5846 5845 5843 5842 5841 5839 5838 5835 5833 5832 5830 5828 5826 5824 5822 5820 5818 5816 5814 5812
5856 5856 5855 5853 5852 5852 5851 5851 5850 5850 5849 5848 5848 5847 5847 5846 5846 5846 5845 5845 5844 5843 5842 5840 5839 5837 5836 5834 5833 5831 5829 5827 5825 5823 5821 5820 5818 5816 5814 5812 5810 5808 5806
5852 5852 5852 5851 5850 5849 5848 5847 5847 5846 5845 5844 5843 5843 5843 5842 5842 5842 5841 5840 5839 5837 5836 5834 5833 5831 5829 5828 5826 5824 5822 5820 5818 5815 5813 5811 5809 5808 5806 5804 5802 5800 5798
5849 5849 5849 5848 5847 5846 5844 5844 5843 5842 5840 5840 5839 5838 5838 5838 5837 5836 5835 5834 5833 5831 5829 5827 5826 5824 5822 5820 5818 5815 5813 5811 5808 5806 5803 5801 5799 5797 5796 5794 5792 5791 5789
5845 5845 5845 5845 5845 5843 5842 5840 5839 5837 5835 5835 5835 5834 5833 5833 5832 5831 5830 5828 5827 5825 5822 5820 5818 5816 5813 5810 5808 5805 5803 5800 5798 5796 5793 5791 5789 5787 5785 5784 5782 5780 5777
5840 5841 5842 5842 5841 5839 5838 5836 5835 5833 5831 5830 5830 5829 5828 5827 5826 5825 5823 5821 5819 5816 5814 5812 5809 5805 5803 5800 5798 5795 5793 5790 5788 5786 5784 5781 5779 5776 5774 5772 5770 5768 5765
5835 5837 5837 5837 5836 5835 5834 5831 5830 5828 5826 5825 5825 5824 5822 5821 5820 5818 5815 5812 5809 5806 5804 5801 5798 5796 5793 5791 5788 5786 5784 5781 5778 5776 5774 5770 5768 5765 5762 5760 5757 5755 5753
5831 5832 5832 5832 5832 5830 5829 5827 5825 5823 5822 5820 5819 5818 5816 5814 5812 5809 5805 5802 5798 5796 5794 5792 5789 5787 5785 5782 5779 5777 5774 5772 5769 5765 5763 5760 5757 5753 5751 5748 5745 5742 5739
5827 5827 5827 5827 5826 5825 5824 5822 5821 5819 5817 5815 5813 5812 5809 5806 5803 5799 5796 5793 5790 5787 5785 5782 5780 5778 5776 5773 5771 5767 5765 5762 5759 5756 5752 5750 5747 5743 5739 5737 5734 5731 5727
5821 5821 5821 5822 5821 5820 5818 5816 5815 5814 5811 5809 5806 5804 5800 5797 5795 5792 5789 5786 5783 5779 5776 5774 5772 5770 5768 5765 5762 5759 5756 5752 5748 5745 5742 5738 5735 5731 5728 5724 5719 5718 5715
5815 5815 5815 5814 5814 5813 5812 5810 5809 5807 5805 5802 5799 5795 5792 5789 5787 5784 5781 5778 5776 5773 5769 5767 5764 5762 5759 5755 5752 5749 5745 5742 5737 5733 5729 5725 5721 5718 5714 5711 5707 5702 5698
5809 5808 5808 5807 5807 5807 5805 5804 5802 5800 5798 5794 5791 5787 5784 5781 5778 5776 5773 5771 5769 5766 5762 5759 5756 5752 5748 5744 5741 5738 5734 5731 5727 5722 5716 5711 5707 5704 5699 5695 5691 5687 5683
5802 5802 5802 5801 5801 5800 5799 5798 5796 5793 5790 5787 5783 5780 5777 5774 5771 5768 5766 5763 5760 5757 5753 5749 5746 5742 5737 5731 5728 5725 5722 5718 5712 5708 5704 5700 5695 5689 5684 5679 5675 5670 5667
5797 5797 5797 5796 5796 5794 5793 5792 5790 5786 5783 5780 5777 5774 5771 5768 5764 5761 5758 5755 5751 5747 5742 5738 5734 5730 5725 5718 5712 5707 5705 5706 5701 5696 5691 5685 5680 5674 5669 5663 5657 5652 5648
5790 5791 5792 5792 5790 5788 5787 5784 5781 5778 5776 5773 5770 5767 5764 5760 5757 5753 5750 5746 5742 5738 5733 5728 5723 5717 5712 5707 5698 5689 5685 5683 5679 5678 5675 5670 5664 5658 5652 5646 5640 5634 5627
5783 5785 5785 5785 5784 5782 5779 5776 5773 5771 5769 5766 5763 5760 5756 5752 5749 5745 5741 5736 5732 5728 5723 5717 5711 5704 5697 5691 5685 5677 5668 5659 5653 5656 5653 5646 5639 5634 5630 5625 5619 5612 5605
5778 5778 5779 5779 5778 5775 5772 5769 5767 5764 5761 5759 5755 5752 5749 5745 5741 5737 5732 5728 5722 5717 5710 5703 5696 5688 5680 5672 5664 5656 5649 5641 5630 5623 5630 5624 5617 5610 5606 5600 5593 5586 5580
5773 5773 5772 5771 5769 5767 5765 5763 5760 5757 5754 5751 5748 5744 5740 5735 5731 5726 5721 5715 5708 5702 5694 5687 5678 5670 5662 5653 5644 5635 5626 5618 5607 5597 5589 5595 5590 5590 5581 5575 5564 5558 5550